Estherville, IA

7:43 PM CST on February 09, 2016 (GMT -0600)
Estherville Municipal

Weather History for KEST - April, 2013

Change the Weather History Date:

Monday, April 29, 2013

  Actual Average Record
Temperature  
Mean Temperature 61 °F 52 °F  
Max Temperature 76 °F 65 °F 93 °F (2007)
Min Temperature 46 °F 40 °F 22 °F (1958)
Degree Days  
Heating Degree Days 4 13  
Month to date heating degree days 729 534  
Since 1 July heating degree days 7567 7449  
Cooling Degree Days 0 0  
Month to date cooling degree days 0 0  
Year to date cooling degree days 0 0  
Growing Degree Days 10 (Base 50)    
Moisture  
Dew Point 49 °F    
Average Humidity 67    
Maximum Humidity 93    
Minimum Humidity 41    
Precipitation  
Precipitation 0.08 in 0.13 in 1.26 in (2006)
Month to date precipitation 4.29 3.17  
Sea Level Pressure  
Sea Level Pressure 29.70 in    
Wind  
Wind Speed 10 mph (ENE)    
Max Wind Speed 17 mph    
Max Gust Speed 22 mph    
Visibility 10 miles    
Events Rain , Thunderstorm    
T = Trace of Precipitation, MM = Missing Value Source: NWS Daily Summary

Daily Weather History Graph

Daily Weather History Graph

Search for Another Location

Airport or City:

Trip Planner

Search our weather history database for the weather conditions in past years. The results will help you decide how hot, cold, wet, or windy it might be!

Date:

Astronomy

Apr. 29, 2013 Rise Set
Actual Time 6:14 AM CDT 8:18 PM CDT
Civil Twilight 5:43 AM CDT 8:50 PM CDT
Nautical Twilight 5:05 AM CDT 9:28 PM CDT
Astronomical Twilight 4:23 AM CDT 10:10 PM CDT
Moon No Moon Rise 9:33 AM CDT (4/29)
Length of Visible Light 15h 06m
Length of Day
14h 04m
Waning Gibbous, 80% of the Moon is Illuminated
Apr 29
Waning Gibbous
May 2
Last Quarter
May 9
New
May 17
First Quarter
May 24
Full

Hourly Weather History & Observations

Time (CDT) Temp. Windchill Dew Point Humidity Pressure Visibility Wind Dir Wind Speed Gust Speed Precip Events Conditions
12:52 AM 55.9 °F - 50.0 °F 80% 29.80 in 10.0 mi North 8.1 mph - 0.00 in Thunderstorm Overcast
1:33 AM 53.6 °F - 51.8 °F 94% 29.79 in 10.0 mi NNE 6.9 mph - 0.08 in Rain Light Rain
1:52 AM 54.0 °F - 51.1 °F 90% 29.78 in 10.0 mi ESE 3.5 mph - 0.09 in Rain Light Rain
2:52 AM 52.0 °F - 50.0 °F 93% 29.78 in 10.0 mi NNE 6.9 mph - 0.00 in   Partly Cloudy
3:52 AM 51.1 °F - 48.0 °F 89% 29.79 in 10.0 mi NNW 8.1 mph - N/A   Clear
4:52 AM 48.9 °F - 46.0 °F 90% 29.80 in 10.0 mi NNW 9.2 mph - N/A   Clear
5:52 AM 46.9 °F - 43.0 °F 86% 29.80 in 10.0 mi North 8.1 mph - N/A   Clear
6:52 AM 46.0 °F 42.5 °F 42.1 °F 86% 29.81 in 10.0 mi NNW 6.9 mph - N/A   Clear
7:52 AM 46.0 °F 40.2 °F 41.0 °F 83% 29.81 in 10.0 mi North 12.7 mph 21.9 mph N/A   Clear
8:52 AM 48.9 °F - 43.0 °F 80% 29.81 in 10.0 mi NNE 12.7 mph - N/A   Clear
9:52 AM 53.1 °F - 45.0 °F 74% 29.79 in 10.0 mi NNE 11.5 mph - N/A   Clear
10:52 AM 57.9 °F - 48.0 °F 70% 29.76 in 10.0 mi ENE 9.2 mph - N/A   Clear
11:52 AM 63.0 °F - 51.1 °F 65% 29.74 in 10.0 mi ENE 6.9 mph - N/A   Clear
12:52 PM 64.0 °F - 51.1 °F 63% 29.70 in 10.0 mi East 5.8 mph - N/A   Clear
1:52 PM 70.0 °F - 50.0 °F 49% 29.67 in 10.0 mi East 5.8 mph - N/A   Clear
2:52 PM 73.9 °F - 51.1 °F 45% 29.66 in 10.0 mi SE 9.2 mph - N/A   Partly Cloudy
3:52 PM 73.9 °F - 51.1 °F 45% 29.64 in 10.0 mi South 8.1 mph - N/A   Clear
4:52 PM 75.0 °F - 52.0 °F 44% 29.62 in 10.0 mi SSE 8.1 mph - N/A   Scattered Clouds
5:52 PM 75.0 °F - 51.1 °F 43% 29.60 in 10.0 mi South 9.2 mph - N/A   Scattered Clouds
6:52 PM 73.0 °F - 48.0 °F 41% 29.58 in 10.0 mi SSE 12.7 mph - N/A   Clear
7:52 PM 69.1 °F - 50.0 °F 51% 29.56 in 10.0 mi SE 9.2 mph - N/A   Clear
8:52 PM 64.9 °F - 52.0 °F 63% 29.55 in 10.0 mi SE 11.5 mph - N/A   Clear
9:52 PM 64.0 °F - 54.0 °F 70% 29.55 in 10.0 mi SE 12.7 mph - N/A   Clear
11:52 PM 66.0 °F - 55.0 °F 68% 29.48 in 10.0 mi SSE 15.0 mph - N/A   Clear